This demonstration page uses our WeatherBlox Daily Observations layout. Learn more.

Left ArrowRight Arrow

38.20091, -84.87328

Hourly Observations for September 5, 2021

Temp ( °F °C ) Dew Point ( °F °C ) Humidity (%) Winds ( mph kmh ) Pressure ( in mb ) Visibility ( mi km ) Precip ( " mm )
12:53 am 00:53 Cloudy 73 22.8 67 19.4 81 81 SSW 5 7 29.88 1012 10 16 0.00 0.00
1:53 am 01:53 Cloudy 72 22.2 67 19.4 84 84 WSW 3 6 29.88 1012 10 16 0.00 0.00
2:53 am 02:53 Cloudy with Light Rain 70 21.1 68 20 93 93 WSW 3 6 29.86 1011 10 16 0.08 2.03
3:53 am 03:53 Cloudy 70 21.1 68 20 93 93 WSW 3 6 29.86 1011 10 16 0.01 0.25
4:53 am 04:53 Cloudy with Light Rain 69 20.6 67 19.4 93 93 WSW 6 9 29.86 1011 6 10 0.03 0.76
5:32 am 05:32 Cloudy with Heavy Rain 68 20 66 18.9 93 93 SW 15 24 29.87 1012 2 3 0.14 3.56
5:46 am 05:46 Cloudy with Heavy Rain 67 19.4 65 18.3 93 93 WSW 14 22 29.87 1012 2 3 0.29 7.37
5:53 am 05:53 Cloudy with Heavy Rain 67 19.4 65 18.3 93 93 WSW 12 19 29.87 1011 3 4 0.35 8.89
6:07 am 06:07 Cloudy with Heavy Rain 67 19.4 65 18.3 93 93 SW 10 17 29.86 1011 3 5 0.07 1.78
6:31 am 06:31 Cloudy with Heavy Rain 67 19.4 66 18.9 97 97 SSW 6 9 29.86 1011 2 3 0.17 4.32
6:53 am 06:53 Cloudy with Light Rain 67 19.4 65 18.3 93 93 SSW 5 7 29.86 1011 7 11 0.21 5.33
7:53 am 07:53 Cloudy with Light Rain 68 20 67 19.4 96 96 SW 6 9 29.87 1011 7 11 0.06 1.52
8:00 am 08:00 Cloudy with Light Rain 68 20 67 19.4 96 96 SW 6 9 29.87 1012 4 6 0.01 0.25
8:22 am 08:22 Cloudy with Light Rain 69 20.6 66 18.9 90 90 SW 13 20 29.87 1011 7 11 0.03 0.76
8:53 am 08:53 Cloudy with Light Rain 68 20 66 18.9 93 93 SW 10 17 29.87 1012 5 8 0.05 1.27
9:00 am 09:00 Cloudy with Light Rain 68 20 66 18.9 93 93 WSW 9 15 29.87 1012 3 5 0.01 0.25
9:53 am 09:53 Cloudy with Light Rain 68 20 67 19.4 96 96 WSW 9 15 29.88 1012 4 6 0.02 0.51
10:24 am 10:24 Cloudy with Rain 68 20 67 19.4 96 96 WSW 8 13 29.89 1012 2 3 0.03 0.76
10:40 am 10:40 Cloudy with Rain 68 20 67 19.4 96 96 W 3 6 29.89 1012 2 2 0.08 2.03
10:53 am 10:53 Cloudy with Rain 68 20 67 19.4 96 96 WSW 6 9 29.90 1012 2 2 0.12 3.05
11:12 am 11:12 Cloudy with Light Rain 69 20.6 67 19.4 93 93 WSW 7 11 29.90 1013 3 4 0.03 0.76
11:19 am 11:19 Cloudy with Light Rain 69 20.6 67 19.4 93 93 WSW 6 9 29.90 1013 3 5 0.04 1.02
11:35 am 11:35 Cloudy with Light Rain 69 20.6 68 20 96 96 WSW 5 7 29.91 1013 5 8 0.04 1.02
11:49 am 11:49 Cloudy 70 21 68 20 94 94 WSW 5 7 29.90 1012 10 16 0.04 1.02
11:53 am 11:53 Cloudy with Light Rain 69 20.6 68 20 96 96 SW 7 11 29.90 1012 7 11 0.04 1.02
12:19 pm 12:19 Cloudy 70 21.1 68 20 93 93 VRB 3 6 29.90 1012 10 16 0.00 0.00
12:53 pm 12:53 Cloudy 71 21.7 69 20.6 94 94 SW 6 9 29.90 1013 9 14 0.00 0.00
1:17 pm 13:17 Cloudy 71 21.7 69 20.6 94 94 SW 5 7 29.90 1012 10 16 0.00 0.00
1:38 pm 13:38 Cloudy 71 21.7 69 20.6 94 94 SW 6 9 29.89 1012 10 16 0.01 0.25
1:53 pm 13:53 Cloudy with Light Rain 71 21.7 70 21.1 96 96 W 5 7 29.90 1012 5 8 0.02 0.51
2:02 pm 14:02 Cloudy with Light Rain 72 22.2 70 21.1 94 94 W 3 6 29.89 1012 5 8 0.00 0.00
2:29 pm 14:29 Cloudy 72 22.2 70 21.1 94 94 SW 3 6 29.88 1012 7 11 0.00 0.00
2:53 pm 14:53 Mostly Cloudy 73 22.8 70 21.1 90 90 S 3 6 29.88 1012 10 16 0.00 0.00
3:08 pm 15:08 Mostly Cloudy 73 22.8 70 21.1 90 90 S 5 7 29.88 1012 10 16 0.00 0.00
3:29 pm 15:29 Cloudy 76 24.4 71 21.7 85 85 VRB 3 6 29.87 1011 10 16 0.00 0.00
3:40 pm 15:40 Mostly Cloudy 75 23.9 68 20 79 79 VRB 3 6 29.86 1011 10 16 0.00 0.00
3:53 pm 15:53 Mostly Cloudy 76 24.4 70 21.1 82 82 VRB 5 7 29.87 1012 10 16 0.00 0.00
4:09 pm 16:09 Mostly Cloudy 75 23.9 68 20 79 79 SSW 5 7 29.86 1011 10 16 0.00 0.00
4:30 pm 16:30 Mostly Sunny 77 25 70 21.1 79 79 SSW 3 6 29.86 1011 10 16 0.00 0.00
4:53 pm 16:53 Mostly Cloudy 76 24.4 68 20 77 77 SW 5 7 29.87 1011 10 16 0.00 0.00
5:53 pm 17:53 Partly Cloudy 77 25 68 20 74 74 W 5 7 29.87 1012 10 16 0.00 0.00
6:53 pm 18:53 Cloudy 75 23.9 68 20 79 79 SW 6 9 29.87 1012 10 16 0.00 0.00
7:53 pm 19:53 Cloudy 74 23.3 69 20.6 85 85 NW 3 6 29.89 1012 10 16 0.01 0.25
8:53 pm 20:53 Mostly Cloudy 70 21.1 68 20 93 93 Calm 29.90 1012 10 16 0.00 0.00
9:53 pm 21:53 Mostly Cloudy 69 20.6 67 19.4 93 93 Calm 29.92 1013 10 16 0.00 0.00
10:53 pm 22:53 Clear 65 18.3 64 17.8 97 97 Calm 29.93 1014 9 14 0.00 0.00
11:21 pm 23:21 Mostly Clear with Mist and Fog 64 17.8 63 17.2 96 96 Calm 29.94 1014 2 2 0.00 0.00
11:25 pm 23:25 Mostly Clear with Mist and Fog 64 17.8 63 17.2 96 96 Calm 29.94 1014 1 1 0.00 0.00
11:37 pm 23:37 Clear with Mist and Fog 64 17.8 63 17.2 96 96 Calm 29.95 1014 1 2 0.00 0.00
11:39 pm 23:39 Mostly Clear with Mist and Fog 64 17.8 63 17.2 96 96 Calm 29.95 1014 3 4 0.00 0.00
11:46 pm 23:46 Mostly Clear 63 17.2 62 16.7 97 97 Calm 29.95 1014 8 13 0.00 0.00
11:53 pm 23:53 Mostly Clear with Mist and Fog 63 17.2 62 16.7 97 97 Calm 29.95 1014 6 10 0.00 0.00

Powered by AerisWeather